TimeEST,TemperatureF,Dew PointF,Humidity,Sea Level PressureIn,VisibilityMPH,Wind Direction,Wind SpeedMPH,Gust SpeedMPH,PrecipitationIn,Events,Conditions,WindDirDegrees,DateUTC
12:21 AM,24.8,21.2,86,29.93,4.0,SW,5.8,-,0.00,Snow,Light Snow,230,2013-02-03 05:21:00
12:40 AM,24.8,21.2,86,29.93,4.0,SW,5.8,-,0.00,Snow,Light Snow,230,2013-02-03 05:40:00
12:53 AM,24.1,21.0,88,29.99,4.0,WSW,4.6,-,0.00,Snow,Light Snow,240,2013-02-03 05:53:00
1:13 AM,24.8,21.2,86,29.92,5.0,WSW,5.8,-,0.00,Snow,Light Snow,250,2013-02-03 06:13:00
1:48 AM,24.8,21.2,86,29.91,6.0,WSW,4.6,-,0.00,Snow,Light Snow,250,2013-02-03 06:48:00
1:53 AM,24.1,21.0,88,29.97,6.0,West,4.6,-,0.00,Snow,Light Snow,260,2013-02-03 06:53:00
2:07 AM,24.8,21.2,86,29.90,6.0,West,5.8,-,0.00,,Overcast,260,2013-02-03 07:07:00
2:53 AM,24.1,21.0,88,29.96,6.0,WSW,4.6,-,0.00,Snow,Light Snow,250,2013-02-03 07:53:00
3:26 AM,24.8,21.2,86,29.89,3.0,WSW,3.5,-,0.00,Snow,Light Snow,250,2013-02-03 08:26:00
3:51 AM,24.8,21.2,86,29.88,4.0,WSW,4.6,-,0.00,Snow,Light Snow,240,2013-02-03 08:51:00
3:53 AM,24.1,21.0,88,29.94,4.0,WSW,3.5,-,0.00,Snow,Light Snow,250,2013-02-03 08:53:00
4:11 AM,24.8,21.2,86,29.87,3.0,WSW,5.8,-,0.00,Snow,Light Snow,240,2013-02-03 09:11:00
4:27 AM,24.8,21.2,86,29.87,6.0,SW,4.6,-,0.00,Snow,Light Snow,230,2013-02-03 09:27:00
4:53 AM,23.0,21.0,92,29.92,8.0,WSW,5.8,-,0.00,,Overcast,240,2013-02-03 09:53:00
5:33 AM,23.0,19.4,86,29.85,5.0,WSW,8.1,-,0.00,Snow,Light Snow,250,2013-02-03 10:33:00
5:53 AM,23.0,19.9,88,29.91,6.0,WSW,6.9,-,0.00,,Overcast,250,2013-02-03 10:53:00
6:07 AM,23.0,19.4,86,29.85,5.0,WSW,5.8,-,0.00,Snow,Light Snow,250,2013-02-03 11:07:00
6:19 AM,23.0,19.4,86,29.85,6.0,West,4.6,-,0.00,,Overcast,260,2013-02-03 11:19:00
6:26 AM,23.0,19.4,86,29.85,5.0,West,5.8,-,0.00,Snow,Light Snow,270,2013-02-03 11:26:00
6:33 AM,23.0,19.4,86,29.85,4.0,West,5.8,-,0.00,Snow,Light Snow,270,2013-02-03 11:33:00
7:04 AM,23.0,19.4,86,29.85,4.0,West,6.9,-,0.00,Snow,Light Snow,260,2013-02-03 12:04:00
7:17 AM,23.0,19.4,86,29.84,3.0,West,4.6,-,0.00,Snow,Light Snow,260,2013-02-03 12:17:00
7:27 AM,23.0,19.4,86,29.84,4.0,West,5.8,-,0.00,Snow,Light Snow,270,2013-02-03 12:27:00
7:41 AM,23.0,19.4,86,29.85,2.5,West,5.8,-,0.00,Snow,Light Snow,280,2013-02-03 12:41:00
7:48 AM,23.0,19.4,86,29.85,3.0,West,3.5,-,0.00,Snow,Light Snow,280,2013-02-03 12:48:00
7:53 AM,23.0,19.9,88,29.91,4.0,West,4.6,-,0.00,,Overcast,280,2013-02-03 12:53:00
8:14 AM,23.0,19.4,86,29.85,5.0,West,6.9,-,N/A,,Overcast,260,2013-02-03 13:14:00
8:53 AM,23.0,19.0,85,29.92,2.5,WSW,6.9,-,0.00,Snow,Light Snow,250,2013-02-03 13:53:00
9:17 AM,23.0,19.4,86,29.85,1.5,WSW,8.1,-,0.00,Snow,Light Snow,250,2013-02-03 14:17:00
9:53 AM,23.0,19.9,88,29.91,1.0,West,5.8,-,0.00,Snow,Light Snow,260,2013-02-03 14:53:00
10:00 AM,23.0,19.4,86,29.85,1.0,West,5.8,-,0.00,Snow,Light Snow,260,2013-02-03 15:00:00
10:15 AM,24.8,19.4,80,29.84,1.2,West,4.6,-,0.00,Snow,Light Snow,270,2013-02-03 15:15:00
10:40 AM,24.8,19.4,80,29.83,2.0,West,3.5,-,0.00,Snow,Light Snow,280,2013-02-03 15:40:00
10:48 AM,24.8,19.4,80,29.83,1.8,WSW,5.8,-,0.00,Snow,Light Snow,250,2013-02-03 15:48:00
10:53 AM,24.1,19.0,81,29.89,1.5,WSW,5.8,-,0.00,Snow,Light Snow,250,2013-02-03 15:53:00
11:28 AM,24.8,19.4,80,29.83,0.8,West,8.1,-,0.00,Snow,Light Snow,260,2013-02-03 16:28:00
11:37 AM,24.8,19.4,80,29.83,1.0,Variable,5.8,-,0.00,Snow,Light Snow,0,2013-02-03 16:37:00
11:53 AM,24.1,19.9,84,29.89,1.2,NW,6.9,-,0.00,Snow,Light Snow,310,2013-02-03 16:53:00
12:02 PM,24.8,19.4,80,29.83,1.8,WNW,8.1,-,0.00,Snow,Light Snow,300,2013-02-03 17:02:00
12:07 PM,24.8,19.4,80,29.83,2.5,WNW,9.2,-,0.00,Snow,Light Snow,300,2013-02-03 17:07:00
12:11 PM,24.8,19.4,80,29.83,2.5,WNW,10.4,-,0.00,Snow,Light Snow,300,2013-02-03 17:11:00
12:36 PM,23.0,17.6,80,29.83,1.5,WNW,8.1,-,0.00,Snow,Light Snow,290,2013-02-03 17:36:00
12:44 PM,23.0,17.6,80,29.82,0.8,WNW,9.2,-,0.00,Snow,Light Snow,300,2013-02-03 17:44:00
12:48 PM,23.0,17.6,80,29.82,0.5,WNW,9.2,-,0.00,Snow,Snow,300,2013-02-03 17:48:00
12:53 PM,21.9,18.0,85,29.88,0.5,WNW,8.1,-,0.00,Fog-Snow,Snow,300,2013-02-03 17:53:00
12:57 PM,23.0,17.6,80,29.82,0.8,WNW,8.1,-,0.00,Snow,Light Snow,300,2013-02-03 17:57:00
1:06 PM,23.0,17.6,80,29.82,1.5,NW,8.1,-,0.00,Snow,Light Snow,310,2013-02-03 18:06:00
1:17 PM,23.0,17.6,80,29.82,2.0,NW,6.9,-,0.00,Snow,Light Snow,320,2013-02-03 18:17:00
1:48 PM,23.0,17.6,80,29.81,1.8,WNW,6.9,-,0.00,Snow,Light Snow,300,2013-02-03 18:48:00
1:53 PM,23.0,18.0,81,29.87,2.0,NW,10.4,-,0.00,Snow,Light Snow,320,2013-02-03 18:53:00
2:18 PM,24.8,15.8,69,29.82,5.0,West,11.5,19.6,0.00,Snow,Light Snow,280,2013-02-03 19:18:00
2:53 PM,24.1,14.0,65,29.88,7.0,West,11.5,-,0.00,Snow,Light Snow,280,2013-02-03 19:53:00
3:07 PM,23.0,14.0,68,29.83,6.0,WNW,10.4,-,0.00,Snow,Light Snow,290,2013-02-03 20:07:00
3:53 PM,23.0,14.0,68,29.91,8.0,WNW,11.5,-,0.00,,Overcast,290,2013-02-03 20:53:00
4:39 PM,21.2,14.0,74,29.86,9.0,West,15.0,20.7,0.00,,Overcast,280,2013-02-03 21:39:00
4:53 PM,21.9,14.0,72,29.93,8.0,West,11.5,-,0.00,,Overcast,270,2013-02-03 21:53:00
5:53 PM,21.0,14.0,74,29.95,5.0,West,8.1,17.3,0.00,Snow,Light Snow,280,2013-02-03 22:53:00
6:29 PM,19.4,15.8,86,29.90,2.5,West,12.7,21.9,0.00,Snow,Light Snow,260,2013-02-03 23:29:00
6:48 PM,19.4,15.8,86,29.92,2.0,WSW,12.7,18.4,0.00,Snow,Light Snow,250,2013-02-03 23:48:00
6:53 PM,19.9,16.0,85,29.98,1.8,West,12.7,-,0.00,Snow,Light Snow,260,2013-02-03 23:53:00
7:06 PM,19.4,15.8,86,29.93,2.0,West,13.8,-,0.00,Snow,Light Snow,260,2013-02-04 00:06:00
7:13 PM,19.4,15.8,86,29.94,2.5,West,11.5,20.7,0.00,Snow,Light Snow,270,2013-02-04 00:13:00
7:17 PM,19.4,15.8,86,29.94,3.0,West,17.3,26.5,0.00,Snow,Light Snow,270,2013-02-04 00:17:00
7:31 PM,19.4,15.8,86,29.94,1.8,West,13.8,-,0.00,Snow,Light Snow,270,2013-02-04 00:31:00
7:53 PM,19.0,15.1,85,30.02,1.0,WSW,10.4,19.6,0.00,Snow,Light Snow,250,2013-02-04 00:53:00
8:11 PM,19.4,14.0,80,29.96,2.0,WSW,13.8,21.9,0.00,Snow,Light Snow,250,2013-02-04 01:11:00
8:13 PM,19.4,14.0,80,29.96,2.0,West,13.8,21.9,0.00,Snow,Light Snow,260,2013-02-04 01:13:00
8:26 PM,19.4,14.0,80,29.97,2.5,West,15.0,25.3,0.00,Snow,Light Snow,260,2013-02-04 01:26:00
8:34 PM,19.4,12.2,74,29.98,5.0,West,15.0,28.8,0.00,Snow,Light Snow,260,2013-02-04 01:34:00
8:53 PM,18.0,10.0,71,30.05,9.0,West,17.3,32.2,0.00,,Overcast,260,2013-02-04 01:53:00
9:05 PM,17.6,10.4,73,29.99,10.0,WSW,10.4,24.2,N/A,,Overcast,250,2013-02-04 02:05:00
9:44 PM,17.6,8.6,68,30.00,9.0,West,15.0,21.9,N/A,,Overcast,260,2013-02-04 02:44:00
9:53 PM,18.0,10.0,71,30.06,9.0,West,13.8,21.9,N/A,,Overcast,260,2013-02-04 02:53:00
10:20 PM,17.6,10.4,73,30.00,9.0,WSW,11.5,18.4,N/A,,Overcast,250,2013-02-04 03:20:00
10:53 PM,18.0,10.9,74,30.08,9.0,West,18.4,25.3,0.00,,Overcast,260,2013-02-04 03:53:00
11:53 PM,18.0,10.0,71,30.09,5.0,West,12.7,-,0.00,Snow,Light Snow,260,2013-02-04 04:53:00